Weather Roundup
Issued by NWS

Home | Current Version | Previous Version | Text Only | Print | Product List | Glossary On
Versions: 1 2 3 4 5 6 7 8 9 10 11 12 13 14 15 16 17 18 19 20 21 22 23 24 25 26 27 28 29 30 31 32 33 34 35 36 37 38 39 40 41 42 43 44 45 46 47 48 49 50
000
NZUS93 KARX 300959
HRRWXR

CURRENT HOURLY OBSERVATIONS ACROSS
MUCH OF THE UPPER MISSISSIPPI VALLEY
NATIONAL WEATHER SERVICE LA CROSSE WI
500 AM CDT TUE JUN 30 2015


...SOUTHEAST MINNESOTA...


CITY           SKY/WX    TMP DP  RH WIND       PRES   REMARKS
ROCHESTER      CLEAR     58  56  93 NW3       29.86S
ROCHESTER/MAYO FAIR      59  59 100 CALM      29.86S
WINONA         PTCLDY    55  55 100 NW3       29.84S FOG
AUSTIN         CLEAR     57  55  94 CALM      29.86R FOG
ALBERT LEA     CLEAR     64  63  94 CALM      29.86R FOG
DODGE CENTER   PTCLDY    59  57  94 N3        29.86R
PRESTON        CLEAR     57  55  95 CALM      29.86S FOG
OWATONNA       FOG       57  55  94 CALM      29.86S VSB 1/4
FARIBAULT      CLEAR     57  57 100 CALM      29.86S FOG
$$

...ELSEWHERE IN MINNESOTA...


CITY           SKY/WX    TMP DP  RH WIND       PRES   REMARKS
MINNEAPOLIS    CLEAR     63  60  90 N9        29.86R
INTNL FALLS    CLEAR     50  47  89 CALM      29.96R
DULUTH         CLOUDY    60  56  86 NE7       29.91R
RED WING       FOG       59  57  94 CALM      29.84R VSB 1/4
REDWOOD FALLS  PTCLDY    64  62  93 N6        29.89R FOG
MANKATO        CLEAR     64  61  88 N7        29.86S
WORTHINGTON    CLOUDY    63  57  82 NW7       29.93R
FAIRMONT       CLEAR     64  57  77 NW7       29.88R
$$

...SOUTHWEST WISCONSIN...


CITY           SKY/WX    TMP DP  RH WIND       PRES   REMARKS
LA CROSSE      MOCLDY    61  60  97 N5        29.83R FOG
PRAIRIE DU CHI CLEAR     59  58  96 CALM      29.83R FOG
BOSCOBEL       FOG       59  58  96 S3        29.83R VSB 3/4
LONE ROCK      FOG       58  57  97 W3        29.82R VSB 1/4
PLATTEVILLE    CLEAR     58  57  97 W6        29.82R
FORT MC COY    NOT AVBL
VIROQUA        PTSUNNY   57  57 100 W3        29.83S VSB 1/2
WIS DELLS      FOG       56  55  95 NW3       29.80S VSB<1/4
$$

...ELSEWHERE IN WISCONSIN...


CITY           SKY/WX    TMP DP  RH WIND       PRES   REMARKS
MILWAUKEE      PTCLDY    63  58  83 W5        29.76S
MADISON        CLEAR     59  57  93 NW3       29.80R FOG
GREEN BAY      MOCLDY    62  60  93 N9        29.76S
EAU CLAIRE     PTCLDY    53  52  96 CALM      29.84R FOG
BLACK RVR FLS  FOG       50  50 100 CALM      29.82S VSB<1/4
MEDFORD        MOCLDY    57  56  95 N6        29.84R
WAUSAU         PTCLDY    61  58  90 N7        29.81R
WIS RAPIDS     CLOUDY    60  57  89 N7        29.82R
MARSHFIELD     CLOUDY    61  57  87 N9        29.82R FOG
RICE LAKE      FOG       59  58  96 CALM      29.88R VSB 1/4
$$

...NORTHEAST IOWA...


CITY           SKY/WX    TMP DP  RH WIND       PRES   REMARKS
DECORAH          N/A    N/A N/A N/A MISG        N/A
MASON CITY     CLEAR     64  63  96 NW9       29.87R FOG
CHARLES CITY   CLEAR     59  59 100 NE5       29.85R
OELWEIN        CLEAR     59  59 100 NE6       29.84S
$$

...ELSEWHERE IN IOWA...


CITY           SKY/WX    TMP DP  RH WIND       PRES   REMARKS
DES MOINES     CLOUDY    67  61  81 NW5       29.86S
IOWA CITY      CLEAR     63  60  90 CALM      29.83R
FORT DODGE     CLEAR     63  59  88 NW6       29.89R
$$

...NORTHERN ILLINOIS...


CITY           SKY/WX    TMP DP  RH WIND       PRES   REMARKS
CHICAGO-OHARE  MOCLDY    63  60  90 W6        29.77R
CHICAGO-MIDWAY CLOUDY    66  63  90 W7        29.77R FOG
MOLINE         CLEAR     62  60  93 CALM      29.81R
ROCKFORD       PTCLDY    60  58  92 W3        29.80F
PEORIA         MOCLDY    66  62  87 CALM      29.82S
$$

NOTE: "FAIR" INDICATES FEW OR NO CLOUDS BELOW 12,000 FEET WITH NO
SIGNIFICANT WEATHER AND/OR OBSTRUCTIONS TO VISIBILITY. WIND
SPEEDS ARE IN MILES-PER-HOUR.



USA.gov is the U.S. government's official web portal to all federal, state and local government web resources and services.